[[{"header":{"parameterUnit":"m.s-1","parameterCategory":1,"la1":30.2991,"la2":30.254,"lo1":-89.0895,"lo2":-89.0444,"dy":0.0017,"dx":0.0017,"nx":28,"ny":28,"refTime":"2024-05-13T09:00:00:Z","depth":0,"parameterNumber":2,"parameterNumberName":"U-component_of_WINDS"},"data":[0,0,0,0,0,0,0,0,0,0,0,0,0,0,0,0,0,0,0,0,0,0,0,0,0,0,0,0,0,0,0,0,0,0,0,0,0,0,0,0,0,0,0,0,0,0,0,0,0,0,0,0,0,0,0,0,0,0,2.0889,2.089,0,2.1005,2.1007,2.1008,2.1029,2.1028,2.1027,2.1026,2.1147,2.1151,2.1155,0,0,0,0,0,0,0,0,0,0,0,0,0,2.0686,2.0689,2.0888,2.089,2.0891,2.1005,2.1007,2.1008,2.1029,2.1028,2.1027,2.1026,2.1146,2.1151,2.1156,0,0,0,0,0,0,0,0,0,0,0,0,0,2.0785,2.0691,2.0888,2.0916,2.0919,2.1005,2.1007,2.1009,2.103,2.1028,2.1027,2.1025,2.1144,2.115,2.1156,2.1223,0,0,2.1175,2.1178,0,0,0,0,0,0,0,0,2.078,2.0793,2.091,2.0914,2.0918,2.1001,2.0979,2.1081,2.103,2.0988,2.1026,2.1025,2.11,2.111,2.1135,2.1229,2.1234,2.1176,2.1179,2.1182,2.1184,0,0,0,0,0,0,0,2.0773,2.0788,2.0935,2.0912,2.0917,2.0923,2.0935,2.0999,2.1051,2.0991,2.0993,2.1007,2.1102,2.1129,2.1138,2.1236,2.1176,2.1181,2.1185,2.1187,2.139,2.1392,0,0,0,0,0,0,2.0761,2.0782,2.0931,2.0938,2.0844,2.0927,2.0942,2.0976,2.105,2.106,2.1008,2.1007,2.1119,2.113,2.1142,2.1224,2.1182,2.1188,2.1191,2.1388,2.1391,2.1392,0,0,0,0,0,0,2.0756,2.0774,2.0926,2.0861,2.088,2.0932,2.0971,2.0979,2.1006,2.1062,2.1072,2.1025,2.1118,2.1133,2.1203,2.1229,2.1191,2.1196,2.1386,2.1389,2.1391,2.1389,0,0,0,0,0,0,2.075,2.0772,2.0797,2.0861,2.0884,2.0984,2.0973,2.0982,2.1016,2.1017,2.1081,2.1091,2.1118,2.1193,2.1209,2.1237,2.1201,2.1384,2.1388,2.1391,2.1387,2.1392,2.1395,0,0,0,0,0,2.0743,2.0793,2.0799,2.0816,2.0917,2.0986,2.0999,2.1029,2.1018,2.1044,2.1081,2.1089,2.1224,2.12,2.1218,2.1248,2.1383,2.1387,2.139,2.1386,2.1391,2.1395,0,0,0,0,0,0,2.0731,2.0801,2.0809,2.088,2.0927,2.0989,2.1023,2.1034,2.1084,2.1083,2.1119,2.1133,2.12,2.1231,2.1204,2.1316,2.1303,2.131,2.1293,2.1298,2.1302,2.1293,2.1206,0,0,0,0,0,2.0737,2.0786,2.0846,2.0903,2.0926,2.097,2.1002,2.1021,2.1071,2.1091,2.1132,2.118,2.1234,2.1268,2.1321,2.1393,2.1407,2.1422,2.1426,2.1429,2.1435,2.1475,2.1482,2.1405,2.1405,2.1405,0,0,2.0749,2.0793,2.0823,2.0902,2.094,2.0991,2.0987,2.1041,2.1079,2.1099,2.1166,2.1199,2.1255,2.1326,2.1359,2.1354,2.1459,2.1434,2.1436,2.144,2.1479,2.1487,2.1493,2.1407,2.1407,2.1407,0,0,2.0796,2.0836,2.0887,2.0926,2.0984,2.1013,2.1026,2.1087,2.1109,2.1177,2.1193,2.124,2.1331,2.137,2.1402,2.1466,2.1475,2.1482,2.1502,2.1541,2.1547,2.1552,2.1574,2.1581,2.1488,2.1488,2.1488,0,2.0804,2.0881,2.0913,2.0966,2.1,2.1021,2.1074,2.111,2.1182,2.1205,2.1199,2.1313,2.1353,2.1433,2.1448,2.1474,2.1489,2.1474,2.1543,2.1549,2.1555,2.1576,2.1584,2.1488,2.1488,2.1488,2.1488,0,2.0887,2.0941,2.0976,2.1044,2.1083,2.1136,2.1176,2.1211,2.1227,2.1258,2.1327,2.1376,2.1438,2.1459,2.1475,2.1541,2.1536,2.1536,2.1523,2.1562,2.1582,2.1591,2.1489,2.1489,2.1489,2.1489,0,0,2.0929,2.1015,2.1027,2.1058,2.1124,2.1166,2.1221,2.1281,2.131,2.136,2.1406,2.1483,2.1484,2.152,2.1542,2.1576,2.1622,2.1572,2.1574,2.1578,2.1697,2.1695,2.1704,2.1629,2.1631,2.1632,2.1691,0,2.0984,2.108,2.111,2.1191,2.124,2.1261,2.1308,2.1354,2.1384,2.1431,2.1465,2.1518,2.1515,2.1537,2.1572,2.1609,2.1646,2.1605,2.1672,2.1674,2.1655,2.1715,2.1713,2.1767,2.17,2.1701,2.1702,0,2.106,2.111,2.1195,2.1255,2.1277,2.1318,2.1376,2.1421,2.1473,2.1493,2.1534,2.1553,2.1611,2.1595,2.1675,2.1647,2.1677,2.1699,2.1702,2.1708,2.1689,2.1721,2.1785,2.1792,2.1715,2.1714,2.1713,0,2.108,2.1169,2.1232,2.1258,2.1329,2.1358,2.1389,2.1441,2.1475,2.1526,2.1549,2.1606,2.1637,2.1682,2.1716,2.1702,2.1793,2.178,2.181,2.1809,2.1827,2.1825,2.1894,2.1848,2.1848,2.1848,2.1848,0,2.1137,2.1188,2.1242,2.128,2.1338,2.1373,2.1429,2.1462,2.1508,2.1553,2.1575,2.1617,2.166,2.1708,2.1736,2.1797,2.1812,2.1829,2.1835,2.1826,2.1824,2.1845,2.1841,2.185,2.185,2.1849,2.1849,0,2.1168,2.1207,2.1276,2.1338,2.1355,2.1394,2.1448,2.1486,2.1517,2.1574,2.159,2.1639,2.1697,2.1736,2.181,2.1828,2.1895,2.1901,2.1876,2.1879,2.1906,2.1903,2.199,2.2003,2.195,2.195,2.1951,0,2.1201,2.1241,2.1307,2.1339,2.137,2.1421,2.1456,2.1492,2.1528,2.1591,2.1622,2.1681,2.173,2.1821,2.1864,2.1921,2.1928,2.1955,2.1936,2.1926,2.1927,2.1923,2.1927,2.1957,2.1957,2.1958,2.1958,0,2.1255,2.1272,2.1321,2.1378,2.1419,2.1465,2.1511,2.1536,2.1581,2.162,2.1679,2.1717,2.1793,2.1851,2.1912,2.1945,2.1959,2.1964,2.1973,2.1963,2.1947,2.1955,2.1883,2.1961,2.1961,2.196,2.196,2.196,2.1287,2.1323,2.1375,2.143,2.1469,2.1512,2.155,2.1586,2.1636,2.1699,2.1719,2.178,2.1832,2.1915,2.1949,2.1998,2.1995,2.201,2.2013,2.2016,2.2015,2.194,2.2009,2.2009,2.2009,2.2009,2.2009,0,2.1341,2.1376,2.1425,2.1489,2.1532,2.1542,2.1594,2.1629,2.1683,2.173,2.1778,2.1845,2.1902,2.195,2.2008,2.2038,2.2046,2.2052,2.205,2.2057,2.2014,2.1999,2.2045,2.2045,2.2045,2.2045,2.2045,2.2045,2.1374,2.1435,2.1458,2.1539,2.1574,2.1633,2.1662,2.1702,2.174,2.1814,2.1861,2.1891,2.1939,2.2002,2.2054,2.2067,2.2087,2.2091,2.2105,2.2064,2.206,2.2056,2.2042,2.2096,2.2096,2.2143,2.2144,2.2144]},{"header":{"parameterUnit":"m.s-1","parameterCategory":1,"la1":30.2991,"la2":30.254,"lo1":-89.0895,"lo2":-89.0444,"dy":0.0017,"dx":0.0017,"nx":28,"ny":28,"refTime":"2024-05-13T09:00:00:Z","depth":0,"parameterNumber":3,"parameterNumberName":"V-component_of_WINDS"},"data":[0,0,0,0,0,0,0,0,0,0,0,0,0,0,0,0,0,0,0,0,0,0,0,0,0,0,0,0,0,0,0,0,0,0,0,0,0,0,0,0,0,0,0,0,0,0,0,0,0,0,0,0,0,0,0,0,0,0,1.7105,1.7106,0,1.7218,1.7219,1.722,1.7243,1.7242,1.7241,1.724,1.7355,1.7359,1.7363,0,0,0,0,0,0,0,0,0,0,0,0,0,1.6909,1.6912,1.7105,1.7106,1.7108,1.7218,1.7219,1.7221,1.7243,1.7242,1.7241,1.724,1.7354,1.7358,1.7363,0,0,0,0,0,0,0,0,0,0,0,0,0,1.7005,1.6913,1.7105,1.7132,1.7136,1.7217,1.7219,1.7221,1.7243,1.7242,1.724,1.7239,1.7352,1.7358,1.7364,1.7426,0,0,1.7381,1.7384,0,0,0,0,0,0,0,0,1.6999,1.7012,1.7127,1.713,1.7134,1.7215,1.7192,1.729,1.7243,1.7202,1.724,1.7238,1.7309,1.7319,1.7343,1.7431,1.7436,1.7382,1.7385,1.7388,1.739,0,0,0,0,0,0,0,1.6993,1.7007,1.715,1.7128,1.7133,1.7139,1.7151,1.7211,1.7262,1.7206,1.7208,1.7221,1.7311,1.7337,1.7346,1.7438,1.7382,1.7387,1.7391,1.7393,1.7584,1.7586,0,0,0,0,0,0,1.6981,1.7002,1.7146,1.7153,1.7062,1.7143,1.7157,1.719,1.7261,1.7271,1.7222,1.7221,1.7328,1.7339,1.735,1.7428,1.7388,1.7393,1.7397,1.7583,1.7584,1.7586,0,0,0,0,0,0,1.6977,1.6994,1.7141,1.7078,1.7097,1.7148,1.7185,1.7193,1.7219,1.7273,1.7282,1.7239,1.7327,1.7341,1.7407,1.7432,1.7396,1.7401,1.7581,1.7583,1.7585,1.7584,0,0,0,0,0,0,1.6971,1.6992,1.7016,1.7078,1.71,1.7197,1.7187,1.7196,1.7229,1.723,1.7292,1.7301,1.7327,1.7398,1.7413,1.744,1.7406,1.7579,1.7582,1.7585,1.7582,1.7586,1.759,0,0,0,0,0,1.6964,1.7011,1.7017,1.7035,1.7132,1.7198,1.7211,1.7241,1.7231,1.7256,1.7291,1.7299,1.7427,1.7405,1.7421,1.745,1.7577,1.7581,1.7584,1.7581,1.7586,1.759,0,0,0,0,0,0,1.695,1.702,1.7027,1.7096,1.7141,1.7202,1.7234,1.7245,1.7293,1.7292,1.7327,1.7341,1.7404,1.7434,1.7408,1.7515,1.7502,1.7509,1.7493,1.7498,1.7502,1.7493,1.7411,0,0,0,0,0,1.6955,1.7004,1.7062,1.7117,1.7139,1.7182,1.7213,1.7232,1.728,1.7299,1.7339,1.7385,1.7436,1.7469,1.7518,1.7587,1.7601,1.7615,1.7618,1.7621,1.7627,1.7666,1.7673,1.7598,1.7598,1.7598,0,0,1.6966,1.701,1.7038,1.7115,1.7152,1.7202,1.7198,1.7251,1.7288,1.7307,1.7371,1.7402,1.7456,1.7523,1.7555,1.755,1.7651,1.7626,1.7628,1.7632,1.767,1.7678,1.7684,1.76,1.76,1.76,0,0,1.7011,1.7049,1.7099,1.7137,1.7193,1.7222,1.7234,1.7294,1.7315,1.7381,1.7396,1.7441,1.7527,1.7565,1.7596,1.7656,1.7666,1.7672,1.7691,1.7729,1.7735,1.774,1.7762,1.777,1.7677,1.7677,1.7677,0,1.7017,1.7092,1.7123,1.7176,1.7209,1.7229,1.728,1.7315,1.7385,1.7408,1.7401,1.7511,1.7549,1.7626,1.764,1.7664,1.768,1.7665,1.7731,1.7737,1.7743,1.7764,1.7772,1.7677,1.7677,1.7677,1.7677,0,1.7097,1.7149,1.7183,1.7251,1.7288,1.7339,1.7378,1.7413,1.7429,1.7458,1.7525,1.7571,1.7631,1.765,1.7666,1.773,1.7725,1.7724,1.7712,1.775,1.777,1.7779,1.7678,1.7678,1.7678,1.7678,0,0,1.7136,1.7221,1.7233,1.7264,1.7329,1.7369,1.7422,1.7481,1.751,1.7557,1.7602,1.7676,1.7676,1.7711,1.7731,1.7764,1.781,1.776,1.7762,1.7768,1.7883,1.7884,1.7893,1.7816,1.7818,1.7819,1.7879,0,1.7189,1.7284,1.7314,1.7393,1.7442,1.7462,1.7508,1.7552,1.7581,1.7627,1.7659,1.7711,1.7707,1.7728,1.7762,1.7797,1.7833,1.7793,1.7859,1.7861,1.7845,1.7903,1.7904,1.7958,1.7887,1.7889,1.789,0,1.7264,1.7313,1.7397,1.7456,1.7478,1.7518,1.7575,1.7619,1.767,1.7689,1.7728,1.7746,1.7802,1.7786,1.7864,1.7836,1.7864,1.7886,1.7889,1.7896,1.7878,1.7913,1.7976,1.7984,1.7903,1.7902,1.7901,0,1.7284,1.7372,1.7434,1.746,1.753,1.7558,1.7589,1.7639,1.7672,1.7722,1.7744,1.7799,1.783,1.7872,1.7905,1.789,1.798,1.7967,1.7997,1.7997,1.8015,1.8014,1.8084,1.8033,1.8033,1.8033,1.8033,0,1.734,1.7391,1.7444,1.7482,1.754,1.7574,1.763,1.7661,1.7706,1.775,1.7771,1.7812,1.7853,1.79,1.7926,1.7986,1.8,1.8017,1.8023,1.8015,1.8013,1.8035,1.8032,1.8035,1.8035,1.8034,1.8034,0,1.7373,1.741,1.7479,1.754,1.7557,1.7597,1.7649,1.7687,1.7717,1.7774,1.7789,1.7836,1.7893,1.793,1.8001,1.8019,1.8085,1.809,1.8068,1.8071,1.81,1.8097,1.8187,1.8201,1.814,1.814,1.8141,0,1.7406,1.7446,1.7512,1.7543,1.7574,1.7625,1.766,1.7695,1.773,1.7792,1.7823,1.788,1.7928,1.8018,1.8058,1.8114,1.812,1.8148,1.8129,1.812,1.8122,1.8119,1.8123,1.8151,1.8152,1.8152,1.8152,0,1.7462,1.7479,1.7528,1.7585,1.7626,1.7672,1.7718,1.7742,1.7786,1.7825,1.7883,1.792,1.7994,1.8051,1.811,1.8142,1.8155,1.8158,1.8168,1.8161,1.8147,1.8155,1.8077,1.8156,1.8156,1.8155,1.8155,1.8155,1.7496,1.7533,1.7585,1.764,1.7678,1.7721,1.776,1.7795,1.7845,1.7908,1.7926,1.7986,1.8037,1.8118,1.8151,1.8199,1.8196,1.821,1.8214,1.8217,1.8218,1.8139,1.821,1.821,1.821,1.821,1.8209,0,1.7553,1.7588,1.7638,1.7702,1.7746,1.7754,1.7806,1.7842,1.7895,1.7942,1.7989,1.8056,1.8112,1.8157,1.8215,1.8245,1.8252,1.8259,1.8257,1.8265,1.8217,1.8203,1.8252,1.8252,1.8252,1.8252,1.8252,1.8252,1.7588,1.765,1.7674,1.7756,1.779,1.785,1.7879,1.7919,1.7956,1.8031,1.8078,1.8107,1.8154,1.8215,1.8267,1.8279,1.8299,1.8305,1.8318,1.8272,1.8268,1.8263,1.825,1.8309,1.8309,1.8362,1.8362,1.8362]}]]